User: anonymous   Login
Location: Wildcat Hills Observatory
(41.6350°N, 103.6812°W)
Time: 04:05:14
(UTC-07:00)
Language:

Cosmos 1634 Rocket - Orbit

View from above orbital plane
View from above orbital plane
View from above satellite
View from above satellite

Ground track
Ground track

The orbit data is extracted from the following two-line orbital elements,

1 15598U 85022B   14329.94969272  .00000102  00000-0  88497-4 0  7814
2 15598 082.9385 081.4923 0022233 198.5170 299.9872 13.76498646491931
Epoch (UTC): 25 November 2014 22:47:33
Eccentricity: 0.0022233
inclination: 82.9385°
perigee height: 960 km
apogee height: 992 km
right ascension of ascending node: 81.4923°
argument of perigee: 198.5170°
revolutions per day: 13.76498646
mean anomaly at epoch: 299.9872°
orbit number at epoch: 49193

The dashed part of the orbit path shows where the satellite is in the earth's shadow,  

DLR